Wind_Speed
40 44 45 46 47 47 48 47 43 34 32 31 30 31 36 32 26 24 29 17 15 15 14 11 8 6 11 12 13 12 10 7 5 8 12 13 15 15 22 25 23 22 28
41 43 45 46 45 45 47 49 47 44 38 37 37 27 25 26 26 27 33 21 18 19 17 13 12 7 9 12 12 14 11 11 8 8 11 11 12 14 17 23 23 26 24
44 41 42 45 47 48 44 45 47 47 45 42 43 49 33 27 33 21 22 22 24 23 21 16 14 11 10 13 12 12 10 12 12 8 8 10 12 12 15 18 22 24 25
38 36 42 46 50 43 38 41 44 46 44 43 45 47 52 49 42 29 30 26 27 25 24 19 17 12 10 12 14 12 12 13 12 13 14 12 10 11 14 18 21 23 24
37 44 50 42 41 41 45 47 48 45 40 40 42 45 48 50 48 46 32 29 33 30 29 21 20 16 12 13 12 14 15 14 15 15 12 12 13 9 13 16 18 20 22
48 48 45 43 45 50 52 48 47 42 36 35 37 38 42 46 48 50 47 41 43 35 31 26 23 15 16 16 15 16 16 15 14 16 14 14 12 13 15 16 16 17 21
45 43 41 47 47 41 43 41 37 33 29 27 28 31 37 41 44 48 50 44 43 36 36 31 28 17 19 17 15 16 17 16 16 16 15 13 11 15 15 14 17 17 18
39 42 40 40 37 34 32 32 30 26 24 21 20 22 24 30 40 42 43 43 40 41 40 35 30 23 24 16 16 17 16 18 19 17 16 16 15 13 13 13 18 16 16
32 31 32 37 30 30 22 20 19 21 19 17 18 22 24 28 32 38 41 45 50 47 42 38 32 31 28 20 16 17 16 18 19 18 17 15 16 14 13 12 15 17 16
38 35 36 31 24 21 20 17 17 17 21 23 22 23 22 27 32 33 38 45 50 52 44 42 34 28 29 21 19 16 12 14 17 20 18 16 16 16 16 17 15 17 17
45 40 37 33 22 17 17 13 15 21 22 19 20 20 20 19 29 32 36 45 52 51 46 45 40 37 31 24 22 18 13 15 17 17 18 17 19 16 17 17 16 19 22
35 34 28 24 16 15 15 17 18 19 20 19 17 14 15 16 19 24 37 45 51 52 49 47 42 39 34 28 23 19 13 15 16 11 13 14 19 19 18 18 18 19 17
31 32 28 21 18 18 16 18 20 22 17 19 18 13 12 11 14 24 31 45 51 50 51 48 44 39 34 31 27 21 16 14 9 9 9 12 15 14 15 18 19 19 18
20 23 21 21 19 21 24 20 14 20 17 17 19 17 13 11 12 17 29 39 50 49 49 49 45 42 35 29 28 21 16 10 11 9 9 11 13 11 14 18 17 18 16
13 17 18 17 16 15 13 17 14 17 16 17 19 21 20 16 12 12 18 35 48 49 49 49 46 39 38 30 26 19 16 13 10 10 12 12 16 14 17 17 17 15 12
9 13 10 11 15 14 11 7 8 11 18 22 23 22 26 22 16 15 18 28 43 48 51 51 49 42 39 29 31 25 19 14 11 12 14 14 13 17 15 15 17 9 5
9 9 11 11 12 12 14 13 14 12 10 13 13 18 23 28 24 21 20 23 38 46 53 48 49 45 40 34 29 20 23 22 16 18 14 13 12 14 16 13 10 7 6
12 9 10 11 12 14 17 15 14 18 19 17 21 19 20 24 27 26 28 24 34 47 52 51 47 46 44 39 30 28 29 25 23 15 17 15 17 13 14 8 7 8 7
13 10 8 8 8 15 18 19 21 22 20 23 29 27 27 24 25 27 30 26 28 37 45 42 46 47 46 41 35 33 31 27 24 21 21 17 13 13 14 11 11 8 9
16 18 18 14 6 10 14 20 27 30 24 24 25 31 32 30 29 32 31 31 32 40 42 41 41 48 46 40 37 35 35 27 25 20 19 17 14 15 15 18 15 12 12
17 23 27 23 16 16 21 23 27 32 30 26 26 25 30 34 38 34 33 33 33 44 44 42 44 45 45 45 38 37 35 30 29 26 23 24 20 20 23 17 18 15 18
27 33 32 38 23 24 23 29 32 39 35 26 27 29 32 33 36 39 39 35 36 41 44 48 43 41 44 43 42 42 35 30 28 28 27 24 18 18 19 20 23 20 21
15 12 38 46 24 23 29 32 35 44 35 28 30 31 34 35 33 37 40 41 40 39 45 50 46 44 41 43 44 39 34 32 32 30 23 21 21 20 23 20 21 21 26
5 27 33 13 27 27 34 33 37 46 38 34 31 31 32 36 35 35 37 44 45 42 45 51 51 47 43 44 43 39 35 36 36 36 30 27 25 21 23 23 22 23 28
21 16 42 30 27 28 26 31 36 41 36 26 20 19 22 21 34 34 33 42 48 47 43 47 48 48 46 45 44 39 36 37 34 29 28 29 29 24 22 27 26 26 28
28 29 38 36 26 22 28 33 37 39 29 22 16 15 15 18 25 36 35 40 48 50 47 46 45 47 46 46 45 45 42 38 38 34 32 32 28 23 22 32 28 26 23
Wind_Direction
277 279 280 279 282 284 283 283 280 273 256 248 258 249 254 254 254 250 263 230 235 223 213 215 218 260 233 237 235 234 235 257 309 3 4 14 39 35 43 41 41 31 30
278 280 283 283 283 284 284 285 283 277 266 248 253 232 247 246 244 245 238 226 232 234 210 207 216 220 236 231 239 237 243 248 266 304 341 14 24 32 25 32 31 27 29
277 279 281 276 274 281 283 280 279 276 271 262 246 243 226 232 224 234 221 222 248 233 203 207 213 219 234 234 238 239 241 241 249 276 315 335 360 17 17 14 20 17 24
263 271 288 286 276 281 290 293 285 277 269 260 255 248 252 247 242 230 241 247 240 236 212 202 206 210 216 232 236 242 227 231 245 263 283 304 324 7 10 14 18 12 23
271 283 293 288 283 284 289 287 285 274 265 257 250 249 249 252 247 248 234 235 224 224 220 216 202 206 213 225 230 238 232 234 238 254 272 288 300 323 354 3 6 8 13
288 294 295 296 294 290 285 283 280 270 263 255 246 244 242 244 246 241 245 231 229 223 219 224 208 211 216 214 229 228 235 235 234 246 269 279 290 312 320 343 1 7 14
288 291 292 296 298 288 281 272 267 266 263 256 250 244 240 238 238 239 240 231 230 221 214 214 210 213 220 221 232 232 236 237 233 251 263 272 279 300 328 331 347 3 12
296 299 301 293 296 284 273 266 258 257 249 252 250 248 241 237 232 232 226 227 217 211 217 211 209 228 223 214 228 237 238 239 243 251 262 271 276 294 317 323 333 344 354
310 313 312 310 300 288 275 269 253 241 235 241 252 251 248 231 226 223 222 219 214 224 214 207 205 228 214 212 231 233 233 236 246 244 252 264 272 284 301 298 327 327 341
312 313 302 313 306 290 276 275 239 232 236 242 257 256 247 238 226 218 217 215 214 215 209 211 205 218 211 207 221 220 243 243 240 243 247 256 265 282 288 294 305 316 325
310 311 307 305 293 280 276 270 240 239 253 251 247 235 240 239 227 222 216 214 211 211 207 208 207 207 212 206 215 218 255 248 244 240 242 250 265 277 285 292 296 307 311
313 313 298 287 282 275 280 267 252 245 251 231 215 225 241 226 225 225 219 213 210 210 208 208 209 206 197 215 218 225 250 252 247 239 244 246 261 275 283 290 299 299 310
299 292 283 285 273 262 273 271 249 243 242 228 220 227 232 222 220 224 217 214 210 211 208 206 207 203 200 209 225 224 225 225 232 211 213 246 276 285 299 290 296 300 299
294 293 299 302 290 278 273 246 252 244 241 240 239 248 260 256 256 237 222 212 212 215 208 209 208 207 200 214 219 219 211 204 207 201 214 251 270 268 299 293 295 295 302
308 301 309 304 302 309 290 245 250 242 250 263 253 254 260 257 254 245 232 219 213 213 209 210 208 209 197 203 211 216 216 218 205 208 216 238 271 268 299 299 299 304 304
297 302 312 330 338 339 330 243 245 249 249 251 261 259 249 260 254 247 239 227 214 215 210 209 210 204 202 197 201 212 222 222 208 250 242 246 261 291 297 303 306 305 299
278 286 318 322 326 340 337 320 298 296 287 263 228 249 244 251 251 244 249 233 222 215 209 216 212 203 203 198 193 211 214 226 215 234 223 265 282 287 287 286 306 296 315
288 302 325 320 321 315 317 303 289 277 269 267 259 251 242 249 255 254 241 237 220 216 219 212 214 207 206 202 198 210 206 223 222 219 246 247 264 281 285 286 285 296 284
292 293 303 307 330 327 339 334 319 292 267 257 250 255 259 252 253 255 237 230 223 214 212 216 207 205 208 206 198 204 200 217 230 223 225 253 262 269 271 270 270 275 281
320 289 296 288 332 339 339 341 337 329 308 279 261 250 246 243 249 249 242 227 221 213 209 207 207 202 205 212 206 204 199 206 215 218 238 239 257 280 279 271 279 270 279
344 322 325 322 306 302 308 324 327 330 313 289 273 251 249 245 235 242 241 227 212 211 209 209 205 208 211 217 216 211 203 209 205 233 247 234 247 275 277 274 273 269 266
329 319 323 325 313 326 317 316 319 327 318 286 271 267 258 243 238 231 233 225 216 206 212 208 210 210 215 213 212 217 216 210 209 234 246 244 255 277 276 254 255 272 263
324 247 313 305 295 316 312 310 318 321 316 297 277 262 256 245 230 229 233 222 215 211 209 212 211 215 214 218 221 220 219 221 223 221 238 245 248 261 270 269 257 256 254
126 155 227 262 286 300 304 311 317 326 317 303 290 276 266 251 231 224 229 223 215 212 208 213 216 215 216 221 221 222 223 225 229 233 230 242 249 260 260 265 275 270 268
229 223 240 263 283 298 301 304 314 327 320 315 306 294 275 265 231 222 226 224 216 215 208 212 219 221 223 220 226 223 222 231 237 242 240 240 245 247 266 280 277 278 269
245 256 240 258 275 292 300 300 320 322 324 323 325 305 295 282 232 220 222 224 214 216 212 214 213 218 219 220 222 225 228 234 237 238 245 247 248 253 274 280 277 278 280
Height
10991 10989 10987 10985 10981 10979 10977 10978 10979 10982 10985 10984 10984 10985 10987 10990 10992 10994 10996 10997 10998 10998 11000 10999 10999 10998 10997 10997 10997 10998 10999 11000 10998 10997 10996 10995 10992 10990 10987 10985 10983 10981 10977
10986 10983 10980 10977 10976 10972 10969 10969 10970 10972 10976 10979 10979 10979 10981 10985 10987 10989 10991 10993 10995 10995 10996 10997 10997 10996 10996 10996 10995 10996 10998 10999 10998 10997 10996 10994 10992 10990 10988 10987 10984 10982 10978
10981 10977 10974 10971 10968 10965 10964 10962 10961 10962 10963 10967 10971 10972 10976 10979 10983 10984 10987 10988 10991 10992 10992 10994 10994 10994 10994 10994 10994 10994 10996 10997 10997 10996 10994 10994 10993 10991 10989 10988 10985 10982 10978
10971 10970 10966 10963 10962 10958 10957 10953 10951 10949 10951 10953 10958 10961 10963 10968 10974 10978 10982 10984 10987 10989 10989 10990 10992 10991 10991 10992 10993 10992 10994 10995 10995 10995 10993 10992 10991 10991 10989 10988 10986 10983 10979
10964 10961 10958 10956 10953 10950 10949 10946 10942 10939 10940 10942 10945 10950 10953 10957 10964 10969 10976 10979 10983 10984 10986 10987 10988 10988 10989 10990 10991 10991 10991 10992 10993 10993 10992 10991 10990 10990 10989 10988 10986 10983 10980
10956 10954 10952 10950 10948 10943 10939 10936 10932 10930 10930 10932 10935 10939 10944 10948 10953 10961 10967 10974 10976 10979 10981 10984 10984 10985 10987 10987 10988 10989 10989 10989 10990 10991 10992 10991 10990 10989 10989 10988 10986 10983 10981
10951 10950 10947 10945 10937 10932 10927 10925 10923 10923 10925 10926 10929 10932 10935 10939 10944 10950 10957 10965 10968 10972 10975 10978 10981 10982 10986 10987 10987 10987 10987 10987 10988 10989 10990 10990 10990 10989 10988 10987 10985 10984 10982
10947 10946 10941 10935 10929 10926 10922 10919 10917 10918 10920 10922 10924 10925 10928 10931 10935 10940 10946 10953 10960 10964 10968 10972 10976 10980 10983 10982 10984 10985 10985 10986 10985 10986 10988 10988 10988 10988 10987 10986 10984 10983 10982
10942 10938 10933 10929 10923 10919 10916 10913 10913 10914 10917 10919 10920 10921 10922 10924 10927 10932 10937 10943 10950 10956 10962 10968 10971 10977 10979 10980 10982 10983 10984 10983 10983 10984 10985 10987 10986 10986 10986 10985 10983 10982 10981
10935 10933 10927 10922 10918 10915 10913 10911 10910 10912 10914 10915 10916 10916 10917 10918 10921 10926 10930 10935 10942 10948 10954 10960 10964 10970 10975 10976 10979 10981 10981 10981 10981 10981 10982 10983 10984 10983 10984 10984 10983 10981 10980
10929 10929 10926 10918 10914 10914 10913 10911 10912 10911 10911 10911 10911 10911 10911 10912 10916 10920 10924 10929 10936 10942 10947 10953 10957 10963 10970 10972 10974 10976 10978 10979 10978 10977 10979 10982 10981 10982 10981 10981 10980 10979 10978
10925 10923 10919 10914 10913 10913 10911 10912 10910 10909 10909 10910 10910 10910 10910 10911 10913 10916 10919 10924 10932 10937 10943 10947 10951 10958 10962 10968 10969 10971 10975 10976 10976 10976 10977 10980 10980 10980 10980 10978 10978 10976 10976
10915 10913 10911 10908 10908 10908 10909 10908 10907 10907 10908 10909 10907 10909 10910 10911 10909 10911 10913 10918 10926 10932 10938 10942 10946 10952 10958 10963 10967 10969 10972 10973 10973 10974 10976 10978 10978 10977 10977 10976 10975 10974 10973
10911 10910 10907 10906 10904 10904 10904 10904 10905 10907 10906 10907 10907 10907 10909 10909 10909 10909 10910 10913 10921 10928 10935 10939 10944 10949 10954 10959 10964 10966 10968 10972 10972 10972 10974 10975 10976 10976 10975 10974 10972 10970 10969
10907 10907 10907 10907 10906 10903 10903 10903 10903 10903 10905 10905 10905 10904 10904 10907 10907 10909 10909 10910 10914 10921 10930 10935 10941 10944 10950 10955 10962 10964 10967 10970 10971 10971 10971 10972 10974 10974 10973 10972 10970 10968 10967
10905 10902 10903 10905 10906 10905 10904 10903 10900 10899 10901 10902 10903 10901 10901 10902 10904 10905 10907 10908 10911 10917 10924 10930 10936 10940 10947 10949 10957 10962 10965 10967 10967 10967 10968 10969 10970 10971 10970 10969 10967 10965 10965
10901 10900 10900 10902 10904 10903 10903 10905 10903 10900 10898 10897 10898 10899 10899 10898 10899 10901 10902 10904 10907 10912 10918 10926 10931 10936 10941 10944 10950 10956 10961 10963 10963 10962 10962 10964 10968 10968 10968 10967 10964 10964 10963
10899 10901 10899 10900 10902 10902 10900 10900 10900 10898 10896 10894 10894 10895 10897 10896 10895 10896 10898 10899 10902 10908 10913 10919 10927 10933 10937 10941 10946 10951 10955 10958 10958 10958 10961 10964 10965 10965 10965 10964 10962 10962 10961
10901 10902 10902 10900 10901 10900 10897 10895 10897 10896 10893 10890 10889 10889 10890 10891 10889 10890 10892 10894 10895 10901 10908 10915 10921 10929 10933 10938 10940 10945 10951 10953 10955 10957 10960 10962 10961 10961 10962 10962 10959 10957 10958
10904 10906 10904 10903 10902 10897 10894 10889 10887 10890 10885 10882 10881 10881 10882 10885 10884 10883 10886 10888 10891 10895 10903 10910 10916 10924 10927 10934 10938 10939 10944 10948 10953 10955 10957 10958 10958 10959 10959 10958 10958 10955 10953
10904 10902 10907 10907 10904 10896 10894 10890 10888 10886 10882 10876 10873 10872 10873 10875 10878 10878 10879 10883 10884 10891 10898 10906 10910 10917 10923 10928 10933 10933 10937 10942 10946 10950 10952 10952 10953 10955 10955 10954 10953 10952 10950
10901 10898 10902 10905 10904 10901 10895 10890 10885 10880 10877 10871 10866 10864 10862 10866 10868 10870 10872 10877 10880 10886 10894 10901 10906 10912 10918 10923 10926 10928 10933 10936 10939 10944 10947 10948 10949 10950 10949 10949 10948 10948 10947
10908 10906 10887 10896 10894 10897 10893 10889 10882 10876 10870 10865 10858 10855 10853 10854 10858 10861 10864 10869 10875 10881 10888 10895 10901 10907 10913 10918 10921 10926 10930 10933 10935 10937 10940 10942 10942 10943 10944 10944 10943 10943 10942
10907 10906 10867 10892 10889 10893 10892 10886 10879 10871 10862 10855 10849 10845 10843 10844 10850 10852 10855 10860 10868 10876 10882 10888 10894 10899 10905 10911 10913 10920 10926 10929 10930 10933 10933 10934 10936 10938 10938 10938 10938 10937 10936
10902 10901 10888 10883 10887 10888 10888 10883 10877 10868 10859 10850 10843 10839 10835 10835 10840 10844 10848 10852 10860 10868 10876 10881 10888 10894 10901 10906 10910 10916 10920 10923 10924 10926 10927 10928 10930 10931 10931 10931 10930 10930 10929
10891 10891 10890 10888 10891 10888 10886 10880 10873 10868 10858 10849 10842 10837 10833 10831 10831 10837 10842 10845 10851 10859 10867 10875 10881 10886 10893 10900 10904 10909 10913 10917 10918 10919 10920 10922 10924 10924 10924 10925 10924 10924 10923